Change the Weather History Date:

Thursday, November 7, 2013

  Actual Average (KDBQ) Record (KDBQ)
Temperature  
Mean Temperature 34 °F 41 °F  
Max Temperature 40 °F 50 °F 78 °F (1915)
Min Temperature 27 °F 33 °F 3 °F (1991)
Degree Days  
Heating Degree Days 32 24  
Month to date heating degree days 156  
Since 1 July heating degree days 805  
Cooling Degree Days 0 0  
Month to date cooling degree days 0  
Year to date cooling degree days 643  
Moisture  
Dew Point 27 °F    
Average Humidity 81    
Maximum Humidity 88    
Minimum Humidity 66    
Precipitation  
Precipitation 0.00 in 0.08 in 1.10 in (1938)
Month to date precipitation 0.58  
Year to date precipitation 32.68  
Snow  
Snow 0.00 in 0.10 in - ()
Month to date snowfall 0.2  
Since 1 July snowfall 0.2  
Since 1 September snowfall 0.2  
Snow Depth -    
Sea Level Pressure  
Sea Level Pressure 30.21 in    
Wind  
Wind Speed 6 mph (WSW)    
Max Wind Speed 14 mph    
Max Gust Speed 17 mph    
Visibility 10 miles    
Events      
T = Trace of Precipitation, MM = Missing Value Source: NWS Daily Summary

Daily Weather History Graph

Daily Weather History Graph

Search for Another Location

Airport or City:

Trip Planner

Search our weather history database for the weather conditions in past years. The results will help you decide how hot, cold, wet, or windy it might be!

Date:

Astronomy

Nov. 07, 2013 Rise Set
Actual Time 6:43 AM CST 4:46 PM CST
Civil Twilight 6:13 AM CST 5:16 PM CST
Nautical Twilight 5:40 AM CST 5:50 PM CST
Astronomical Twilight 5:06 AM CST 6:23 PM CST
Moon 10:53 AM CST (11/7) 8:57 PM CST (11/7)
Length of Visible Light 11h 02m
Length of Day
10h 03m
Waxing Crescent, 23% of the Moon is Illuminated
Nov 7
Waxing Crescent
Nov 9
First Quarter
Nov 17
Full
Nov 25
Last Quarter
Dec 2
New

Hourly Weather History & Observations

Time (CST) Temp. Windchill Dew Point Humidity Pressure Visibility Wind Dir Wind Speed Gust Speed Precip Events Conditions
12:15 AM 29.1 °F 23.0 °F 24.4 °F 83% 30.22 in 10.0 mi WSW 5.8 mph - N/A   Clear
12:35 AM 29.3 °F 23.2 °F 24.4 °F 82% 30.21 in 10.0 mi WSW 5.8 mph - N/A   Clear
12:55 AM 28.4 °F 22.2 °F 23.9 °F 83% 30.21 in 10.0 mi WSW 5.8 mph - N/A   Clear
1:15 AM 28.4 °F 21.2 °F 23.7 °F 83% 30.21 in 10.0 mi West 6.9 mph - N/A   Clear
1:35 AM 28.0 °F 21.7 °F 23.4 °F 83% 30.21 in 10.0 mi West 5.8 mph - N/A   Clear
1:55 AM 28.6 °F 22.4 °F 23.7 °F 82% 30.20 in 10.0 mi West 5.8 mph - N/A   Clear
2:15 AM 28.2 °F 24.4 °F 23.2 °F 81% 30.20 in 10.0 mi SW 3.5 mph - N/A   Clear
2:35 AM 27.7 °F 22.4 °F 23.0 °F 83% 30.21 in 10.0 mi WSW 4.6 mph - N/A   Clear
2:55 AM 28.0 °F 22.8 °F 23.0 °F 81% 30.21 in 10.0 mi WSW 4.6 mph - N/A   Clear
3:15 AM 28.4 °F 23.3 °F 22.8 °F 80% 30.20 in 10.0 mi WSW 4.6 mph - N/A   Clear
3:35 AM 27.7 °F 21.3 °F 22.3 °F 80% 30.20 in 10.0 mi WSW 5.8 mph - N/A   Clear
3:55 AM 27.5 °F 22.2 °F 22.5 °F 81% 30.20 in 10.0 mi SW 4.6 mph - N/A   Clear
4:15 AM 27.5 °F 22.2 °F 22.6 °F 82% 30.20 in 10.0 mi SW 4.6 mph - N/A   Clear
4:35 AM 27.0 °F 20.5 °F 22.8 °F 84% 30.20 in 10.0 mi SW 5.8 mph - N/A   Clear
4:55 AM 27.1 °F 20.7 °F 22.5 °F 83% 30.20 in 10.0 mi SW 5.8 mph - N/A   Clear
5:15 AM 27.3 °F 22.0 °F 22.8 °F 83% 30.19 in 10.0 mi SW 4.6 mph - N/A   Clear
5:35 AM 27.5 °F 23.6 °F 23.0 °F 83% 30.19 in 10.0 mi WSW 3.5 mph - N/A   Scattered Clouds
5:55 AM 28.0 °F 24.2 °F 23.2 °F 82% 30.19 in 10.0 mi SW 3.5 mph - N/A   Scattered Clouds
6:15 AM 27.5 °F 23.6 °F 23.0 °F 83% 30.19 in 10.0 mi SSW 3.5 mph - N/A   Scattered Clouds
6:35 AM 27.1 °F 21.8 °F 23.0 °F 84% 30.20 in 10.0 mi SSW 4.6 mph - N/A   Scattered Clouds
6:55 AM 28.9 °F 25.2 °F 25.3 °F 86% 30.20 in 10.0 mi SSW 3.5 mph - N/A   Overcast
7:15 AM 29.7 °F - 25.5 °F 85% 30.21 in 10.0 mi Calm Calm - N/A   Overcast
7:35 AM 30.0 °F 26.5 °F 26.2 °F 86% 30.21 in 10.0 mi SSW 3.5 mph - N/A   Overcast
7:55 AM 30.6 °F 27.1 °F 26.6 °F 85% 30.21 in 10.0 mi SW 3.5 mph - N/A   Overcast
8:15 AM 31.1 °F 26.4 °F 27.3 °F 86% 30.21 in 10.0 mi SW 4.6 mph - N/A   Overcast
8:35 AM 32.0 °F 26.4 °F 28.0 °F 85% 30.21 in 10.0 mi WSW 5.8 mph - N/A   Overcast
8:55 AM 32.0 °F 25.6 °F 28.4 °F 87% 30.21 in 10.0 mi West 6.9 mph - N/A   Overcast
9:15 AM 32.4 °F 25.3 °F 28.8 °F 87% 30.22 in 10.0 mi West 8.1 mph - N/A   Overcast
9:35 AM 32.5 °F 24.8 °F 29.3 °F 88% 30.22 in 10.0 mi West 9.2 mph - N/A   Overcast
9:55 AM 32.9 °F 25.3 °F 29.5 °F 87% 30.22 in 10.0 mi West 9.2 mph - N/A   Overcast
10:15 AM 33.1 °F 24.4 °F 29.8 °F 88% 30.23 in 10.0 mi West 11.5 mph - N/A   Overcast
10:35 AM 33.8 °F 25.3 °F 30.0 °F 86% 30.24 in 10.0 mi West 11.5 mph - N/A   Overcast
10:55 AM 34.0 °F 26.6 °F 30.2 °F 86% 30.24 in 10.0 mi West 9.2 mph - N/A   Overcast
11:15 AM 34.9 °F 27.1 °F 30.4 °F 84% 30.23 in 10.0 mi West 10.4 mph - N/A   Overcast
11:35 AM 34.9 °F 27.1 °F 30.0 °F 82% 30.24 in 10.0 mi WNW 10.4 mph 16.1 mph N/A   Overcast
11:55 AM 35.6 °F 28.0 °F 30.0 °F 80% 30.23 in 10.0 mi WNW 10.4 mph - N/A   Overcast
12:15 PM 36.3 °F 28.9 °F 29.5 °F 76% 30.22 in 10.0 mi West 10.4 mph - N/A   Overcast
12:35 PM 36.5 °F 29.7 °F 30.0 °F 77% 30.22 in 10.0 mi West 9.2 mph - N/A   Mostly Cloudy
12:55 PM 37.2 °F 30.6 °F 30.0 °F 75% 30.22 in 10.0 mi West 9.2 mph 16.1 mph N/A   Overcast
1:15 PM 38.7 °F 30.9 °F 31.1 °F 74% 30.22 in 10.0 mi West 12.7 mph 17.3 mph N/A   Overcast
1:35 PM 38.3 °F 33.9 °F 29.8 °F 72% 30.21 in 10.0 mi West 5.8 mph - N/A   Scattered Clouds
1:55 PM 39.2 °F 32.5 °F 30.9 °F 72% 30.21 in 10.0 mi West 10.4 mph - N/A   Scattered Clouds
2:15 PM 39.2 °F 33.0 °F 30.0 °F 70% 30.21 in 10.0 mi West 9.2 mph 17.3 mph N/A   Scattered Clouds
2:35 PM 39.4 °F 31.4 °F 30.2 °F 70% 30.21 in 10.0 mi West 13.8 mph 17.3 mph N/A   Clear
2:55 PM 39.9 °F 32.5 °F 30.4 °F 69% 30.20 in 10.0 mi West 12.7 mph - N/A   Clear
3:15 PM 39.7 °F 33.2 °F 30.6 °F 70% 30.21 in 10.0 mi West 10.4 mph 17.3 mph N/A   Clear
3:35 PM 40.1 °F 33.6 °F 30.4 °F 68% 30.21 in 10.0 mi West 10.4 mph - N/A   Clear
3:55 PM 40.1 °F 34.1 °F 29.5 °F 66% 30.20 in 10.0 mi WSW 9.2 mph - N/A   Clear
4:55 PM 35.6 °F 29.2 °F 29.1 °F 77% 30.20 in 10.0 mi SW 8.1 mph - N/A   Scattered Clouds
5:15 PM 34.0 °F 31.0 °F 28.4 °F 80% 30.20 in 10.0 mi SSW 3.5 mph - N/A   Scattered Clouds
5:35 PM 35.1 °F 31.0 °F 29.1 °F 79% 30.20 in 10.0 mi SW 4.6 mph - N/A   Clear
5:55 PM 34.7 °F 28.1 °F 29.1 °F 80% 30.20 in 10.0 mi WSW 8.1 mph - N/A   Clear
6:15 PM 35.6 °F 28.0 °F 29.5 °F 78% 30.21 in 10.0 mi WSW 10.4 mph - N/A   Clear
6:35 PM 35.6 °F 27.1 °F 29.3 °F 78% 30.21 in 10.0 mi West 12.7 mph - N/A   Clear
6:55 PM 34.5 °F 26.2 °F 29.1 °F 81% 30.21 in 10.0 mi West 11.5 mph - N/A   Clear
7:15 PM 33.8 °F 25.3 °F 28.4 °F 81% 30.21 in 10.0 mi West 11.5 mph - N/A   Clear
7:35 PM 33.6 °F 25.0 °F 28.4 °F 81% 30.21 in 10.0 mi West 11.5 mph - N/A   Clear
7:55 PM 32.7 °F 26.4 °F 28.0 °F 83% 30.21 in 10.0 mi WSW 6.9 mph - N/A   Clear
8:15 PM 32.9 °F 27.5 °F 27.7 °F 81% 30.22 in 10.0 mi West 5.8 mph - N/A   Clear
8:35 PM 32.9 °F 28.5 °F 27.7 °F 81% 30.23 in 10.0 mi WNW 4.6 mph - N/A   Clear
8:55 PM 32.0 °F 26.4 °F 27.3 °F 83% 30.23 in 10.0 mi West 5.8 mph - N/A   Clear
9:15 PM 32.0 °F 27.5 °F 27.1 °F 82% 30.23 in 10.0 mi WNW 4.6 mph - N/A   Clear
9:35 PM 31.8 °F 24.6 °F 27.3 °F 83% 30.24 in 10.0 mi West 8.1 mph - N/A   Clear
9:55 PM 31.1 °F 24.5 °F 26.6 °F 83% 30.24 in 10.0 mi West 6.9 mph - N/A   Clear
10:15 PM 31.1 °F 25.4 °F 26.6 °F 83% 30.25 in 10.0 mi West 5.8 mph - N/A   Clear
10:35 PM 31.3 °F 26.6 °F 26.6 °F 83% 30.25 in 10.0 mi WNW 4.6 mph - N/A   Clear
10:55 PM 30.9 °F 25.2 °F 26.2 °F 83% 30.24 in 10.0 mi WNW 5.8 mph - N/A   Clear
11:15 PM 29.7 °F 23.7 °F 25.7 °F 85% 30.24 in 10.0 mi WNW 5.8 mph - N/A   Clear
11:35 PM 29.3 °F 24.3 °F 25.3 °F 85% 30.24 in 10.0 mi West 4.6 mph - N/A   Clear
11:55 PM 29.7 °F 26.1 °F 25.7 °F 85% 30.24 in 10.0 mi WNW 3.5 mph - N/A   Clear